Regional Weather Roundup
Issued by NWS

Home | Current Version | Previous Version | Text Only | Print | Product List | Glossary On
Versions: 1 2 3 4 5 6 7 8 9 10 11 12 13 14 15 16 17 18 19 20 21 22 23 24 25 26 27 28 29 30 31 32 33 34 35 36 37 38 39 40 41 42 43 44 45 46 47 48 49 50
801
ASUS43 KMKX 301311
RWRWI

WISCONSIN REGIONAL WEATHER ROUNDUP
NATIONAL WEATHER SERVICE MILWAUKEE/SULLIVAN WI
800 AM CDT SAT JUL 30 2016

NOTE: "FAIR" INDICATES FEW OR NO CLOUDS BELOW 12,000 FEET WITH NO
SIGNIFICANT WEATHER AND/OR OBSTRUCTIONS TO VISIBILITY.

WIZ001-002-006>008-014>016-023>028-301400-
NORTHWEST WISCONSIN

CITY           SKY/WX    TMP DP  RH WIND       PRES   REMARKS
SUPERIOR ARPT  CLOUDY    57  57 100 CALM      30.07S
ASHLAND        CLOUDY    62  58  86 CALM      30.08S
HAYWARD        SUNNY     65  59  81 CALM      30.08R
SIREN          NOT AVBL
CUMBERLAND     SUNNY     63  59  88 SE3       30.08R
RICE LAKE      SUNNY     64  59  82 CALM      30.09R
CHETEK         SUNNY     64  60  86 E7        30.07S
LADYSMITH      SUNNY     63  58  82 E3        30.09S
EAU CLAIRE     SUNNY     65  60  84 NE3       30.05S
MENOMONIE      CLOUDY    65  63  93 CALM      30.06S
NEW RICHMOND   SUNNY     66  62  88 E5        30.06R
OSCEOLA        PTSUNNY   66  66 100 E3        30.08R
$$

WIZ003>005-009-010-017-018-301400-
NORTH CENTRAL WISCONSIN

CITY           SKY/WX    TMP DP  RH WIND       PRES   REMARKS
MANITOWISH WTR CLOUDY    61  61 100 CALM      30.11S
ARBOR VITAE    SUNNY     64  57  77 SE6       30.11S
WOODRUFF       SUNNY     64  57  77 SE6       30.11S
RHINELANDER    SUNNY     62  55  77 E5        30.12R
EAGLE RIVER    SUNNY     64  54  69 E5        30.11S
LAND O LAKES   MOSUNNY   63  55  74 CALM      30.13R
PHILLIPS       PTSUNNY   59  57  92 CALM      30.10R
TOMAHAWK       SUNNY     60  58  96 CALM      30.11S
MEDFORD        SUNNY     61  60  96 E7        30.09R
MERRILL        SUNNY     60  57  88 CALM      30.10S
$$

WIZ029-030-035-036-043>047-301400-
CENTRAL WISCONSIN

CITY           SKY/WX    TMP DP  RH WIND       PRES   REMARKS
WAUSAU         PTSUNNY   64  57  78 NE3       30.07R
MOSINEE        PTSUNNY   61  57  88 NE5       30.09R
MARSHFIELD     PTSUNNY   63  56  78 NE7       30.07R
STEVENS POINT  CLOUDY    61  57  86 NE5       30.07S
WAUPACA        CLOUDY    66  62  87 N3        30.06S
WAUTOMA        CLOUDY    64  60  87 NE6       30.06R
WISC RAPIDS    PTSUNNY   66  57  72 E7        30.07R
CAMP DOUGLAS   MOSUNNY   64  61  88 NE3       30.04S
$$

WIZ011>013-019>022-031-037>040-048>050-301400-
NORTHEAST WISCONSIN

CITY           SKY/WX    TMP DP  RH WIND       PRES   REMARKS
ANTIGO         SUNNY     61  59  92 CALM      30.10S
SHAWANO        MOSUNNY   65  59  80 NE5       30.08S
OCONTO         SUNNY     67  65  94 NE7       30.07S
STURGEON BAY   SUNNY     70  58  65 E7        30.09R
GREEN BAY      PTSUNNY   65  64  97 N7        30.06R
MANITOWOC      SUNNY     68  61  78 MISG      30.06R
APPLETON       PTSUNNY   64  61  88 VRB6      30.04R
CLINTONVILLE   CLOUDY    63  57  82 NE5       30.07R
OSHKOSH        CLOUDY    69  61  75 NE8       30.04R
$$

WIZ032>034-041-042-053>061-301400-
SOUTHWEST WISCONSIN

CITY           SKY/WX    TMP DP  RH WIND       PRES   REMARKS
LA CROSSE      SUNNY     68  62  81 CALM      30.03R
SPARTA         SUNNY     66  60  81 E5        30.05S
VIROQUA        CLOUDY    66  60  82 NE8       30.04S
BOSCOBEL       CLOUDY    66  64  93 VRB3      30.03R
PRAIRIE DU CHI PTSUNNY   66  61  84 CALM      30.02R
PLATTEVILLE    PTSUNNY   67  65  94 NE5       30.02S
$$

WIZ056-057-062-063-064-067-068-301400-
SOUTH CENTRAL WISCONSIN

CITY           SKY/WX    TMP DP  RH WIND       PRES   REMARKS
REEDSBURG      CLOUDY    64  61  89 N3        30.04S
BARABOO/DELLS  CLOUDY    63  59  86 CALM      30.04S
LONE ROCK      CLOUDY    67  61  81 CALM      30.03R
MINERAL POINT  CLOUDY    68  63  83 CALM      30.03R
MADISON        CLOUDY    67  61  81 N5        30.02R
MIDDLETON      CLOUDY    67  62  83 E5        30.03R
WATERTOWN      CLOUDY    67  63  86 NE6       30.02S
MONROE         PTSUNNY   66  63  88 NE6       30.01S
JANESVILLE     CLOUDY    68  66  94 NE6       30.00R
$$

WIZ051-052-058>065-066-070>072-301400-
SOUTHEAST WISCONSIN

CITY           SKY/WX    TMP DP  RH WIND       PRES   REMARKS
MILWAUKEE      PTSUNNY   70  63  78 E9        30.01R
WAUKESHA       MOSUNNY   66  63  88 E6        30.03R
MILWAUKEE/TIMM PTSUNNY   68  61  77 NE6       30.02S
RACINE         CLOUDY    70  64  81 NE8       30.02R
BURLINGTON     CLOUDY    67  64  91 NE3       30.01R
KENOSHA        CLOUDY    71  63  75 E10       30.01R
FOND DU LAC    CLOUDY    69  61  75 NE7       30.04R
SHEBOYGAN      SUNNY     68  62  81 MISG      30.04R
WEST BEND      CLOUDY    68  61  77 NE6       30.03S
JUNEAU         CLOUDY    65  61  85 CALM      30.05R
$$

LSZ147-162-301400-
LAKE SUPERIOR

STATION/POSITION TIME  TEMP    WIND        PRES    WAVE
                       AIR SEA DIR/SP/G            HT/PER
                 (UTC) (F)     (DEG/KT/KT) (MB)    (FT/S)
W MID LAKE BUOY  1250   63 61  100/  8/ 10 1017.8S   0
DEVILS ISLAND    1200   64     120/  4/  5 1018.2R
PORT WING        1200   56     160/  1/  2 1018.3R
SAXON HARBOR     1200   58     190/  2/  4 1017.9S
$$

LMZ867-665-643>646-301400-
LAKE MICHIGAN

STATION/POSITION TIME  TEMP    WIND        PRES    WAVE
                       AIR SEA DIR/SP/G            HT/PER
                 (UTC) (F)     (DEG/KT/KT) (MB)    (FT/S)
CHAMBERS ISLAND  1200   70      50/  6/  9 1018.3R
S GREEN BAY BUOY 1230   68 70   60/ 10/ 12 1017.6R
N MID LAKE BUOY  1250   69 69   80/ 10/ 12 1018.2R   1/ 3
NORTHPORT PIER   1200   70      80/  8/ 11 1018.3R
SISTER BAY       1121   63        CALM       N/A
ALGOMA LAKESHORE 1213           80/ 14/ 16   N/A
KEWAUNEE LAKESHO 1200   68      70/  5/  8 1017.1R
SHEBOYGAN LAKESH 1300   68      50/ 10/ 10 1017.2R
PORT WASHINGTON  1240   70      60/  6/  8 1017.3R
ATWATER BUOY     1300   64 60   60/  4/  6 1018.1R
MILWAUKEE LAKESH 1210   66      30/  7/  7   N/A
S MID LAKE BUOY  1250   68 73   80/ 14/ 17 1014.8R   3/ 4
KENOSHA   LAKESH 1200   70      90/  9/ 12 1015.2R
$$

TC  - TEMPERATURE IN CELSIUS
VSB - VISIBILITY IN STATUTE MILES
WCI - WIND CHILL INDEX
HX  - HEAT INDEX





USA.gov is the U.S. government's official web portal to all federal, state and local government web resources and services.